Wind_Speed
19 15 15 14 12 16 17 19 18 19 19 20 23 28 29 31 31 22 18 21 19 13 10 12 10 7 8 6 7 8 12 13 17 21 26 30 30 35 36 38 28 24 23 22 17 19 23 24 25
18 17 18 17 16 18 19 19 19 21 22 24 26 26 31 33 27 20 21 26 24 12 5 4 4 5 5 5 6 7 10 13 16 20 24 28 30 29 37 39 39 25 27 27 24 20 20 22 25
23 21 21 22 21 17 19 20 19 20 23 26 30 28 28 33 21 19 24 20 18 8 1 1 5 2 2 5 12 10 11 12 15 19 23 25 28 25 29 32 38 39 27 29 32 30 22 22 24
24 24 24 21 18 18 20 20 21 22 22 26 25 23 18 19 21 22 24 21 15 13 6 0 5 4 4 4 13 12 10 12 15 19 21 24 25 27 28 31 33 39 37 35 35 39 38 35 27
25 22 19 22 20 19 20 22 23 22 22 25 28 26 26 25 26 24 19 17 12 10 7 11 12 11 7 3 8 6 10 11 13 17 19 22 23 24 29 33 32 36 38 40 35 36 38 36 38
23 23 22 21 19 20 20 20 17 21 25 32 30 31 30 28 24 22 17 18 20 16 13 17 15 12 5 4 5 8 11 11 10 16 19 18 21 22 23 28 31 31 31 36 40 36 33 35 34
23 26 26 26 24 19 17 17 18 23 30 25 20 19 18 18 17 18 14 15 22 26 23 21 16 10 9 7 10 11 12 11 10 12 16 15 17 20 22 24 27 28 28 30 35 37 42 41 40
13 15 20 19 18 16 18 21 22 26 25 18 19 22 21 18 16 18 16 16 22 34 29 24 18 12 16 10 12 12 14 10 11 13 14 16 15 18 21 23 24 25 27 28 30 32 35 38 37
12 16 18 17 18 20 18 18 20 25 21 20 22 17 17 15 11 8 15 15 19 29 34 29 25 15 17 17 15 14 16 14 12 11 12 15 15 13 17 20 21 25 27 26 27 28 30 27 24
15 14 14 14 17 17 17 19 22 18 13 16 15 14 15 13 9 8 9 13 18 23 27 27 27 26 17 19 13 11 16 17 13 12 11 12 13 13 11 15 18 22 24 26 24 29 31 29 27
19 18 15 11 8 10 14 20 15 10 11 12 11 12 11 11 7 3 6 12 12 16 18 21 28 24 19 17 15 10 20 20 16 13 9 9 9 10 12 11 14 17 20 23 26 25 26 26 24
17 18 13 12 13 12 16 15 9 2 6 11 14 12 8 11 7 2 5 9 12 16 24 24 29 24 23 16 18 14 16 22 18 15 10 7 6 7 8 9 9 11 15 17 20 18 16 17 18
15 16 14 15 14 15 17 9 6 2 4 15 19 14 15 18 15 12 6 8 16 21 26 29 24 24 20 21 17 18 19 22 20 17 11 8 6 7 7 6 6 8 11 14 17 16 14 11 11
17 19 15 11 13 14 8 3 1 3 9 14 19 21 15 19 25 20 11 6 13 15 25 30 27 22 26 19 18 19 16 17 17 17 13 11 6 9 5 5 7 7 9 10 14 15 14 12 10
17 17 15 10 11 8 5 1 4 7 7 7 15 23 16 14 21 24 19 9 10 16 18 30 29 25 23 20 16 20 19 17 20 16 17 13 10 9 9 5 6 7 8 8 10 9 8 6 4
18 18 15 12 12 9 5 1 8 10 6 4 10 15 19 21 18 24 24 14 8 13 18 21 31 34 30 27 24 18 25 22 22 21 16 14 12 8 12 9 7 7 5 5 7 5 3 4 2
19 19 17 15 14 8 6 6 5 8 6 6 10 15 15 14 19 18 22 22 11 6 9 20 20 22 26 31 30 26 24 24 20 19 15 17 13 12 9 12 9 9 6 4 3 4 3 1 2
20 20 17 18 18 12 14 9 7 8 7 5 8 12 15 12 13 18 19 20 21 8 8 12 21 21 21 26 28 28 24 29 22 23 22 20 20 19 14 11 8 5 6 7 5 1 2 2 3
22 21 17 18 18 13 11 7 7 5 6 9 2 10 10 10 9 13 13 18 17 19 3 5 12 22 26 23 25 26 28 28 26 24 26 24 24 22 21 17 11 8 6 10 7 5 3 2 5
22 23 22 21 21 18 16 11 9 5 3 7 5 3 4 6 7 13 17 18 18 14 15 1 5 14 20 24 34 32 29 31 29 26 25 22 24 26 22 19 15 13 9 11 8 8 3 4 2
26 25 27 26 26 23 21 17 14 8 4 3 7 5 4 7 5 14 16 19 18 19 14 15 6 1 6 14 23 30 39 36 38 35 34 30 28 26 24 19 18 15 14 15 13 10 7 6 4
29 28 30 32 30 26 23 21 19 11 9 8 6 7 6 5 11 15 16 22 17 15 14 11 11 1 2 1 9 18 24 39 45 40 43 37 33 33 28 27 18 17 16 15 12 10 12 7 5
31 31 32 33 35 31 28 26 23 20 15 12 13 9 9 12 14 14 18 21 19 15 11 7 12 9 2 5 3 6 14 25 28 35 45 48 42 38 39 32 27 21 18 19 15 11 14 15 11
31 34 35 36 37 35 32 30 26 27 21 19 21 19 15 17 18 18 20 22 22 17 12 10 10 12 4 4 6 3 5 17 26 26 27 29 34 38 40 37 29 25 21 21 16 15 12 12 8
32 36 39 43 41 40 37 36 34 32 28 23 23 23 22 22 23 21 21 23 20 17 13 9 8 9 10 2 8 7 2 9 21 30 29 27 26 30 35 35 28 27 27 24 21 18 16 13 9
38 38 36 41 44 40 41 41 37 37 34 31 28 29 26 26 27 24 25 25 20 15 11 9 6 6 8 10 6 8 5 3 16 28 30 27 28 29 35 32 26 28 29 26 22 20 15 11 8
39 37 38 37 40 43 43 46 41 40 39 36 34 32 32 28 27 28 27 24 21 14 12 11 7 5 7 12 7 7 5 2 9 24 29 28 32 31 33 29 25 26 27 26 24 18 15 14 11
42 42 38 37 36 39 43 45 46 41 40 38 37 34 32 30 31 31 30 24 20 15 12 14 13 10 11 11 7 4 3 2 7 17 25 34 36 33 30 26 25 27 26 23 21 19 19 13 13
45 43 41 40 41 42 41 43 46 44 44 43 39 38 37 33 34 34 32 23 19 17 15 13 15 15 16 10 8 8 6 6 9 16 24 35 38 31 27 27 25 23 26 25 22 19 16 13 10
41 41 42 37 38 42 39 37 47 41 41 43 43 42 40 38 34 31 27 25 20 19 18 15 15 15 21 18 15 13 12 8 11 17 24 35 31 30 33 29 28 25 27 27 24 19 16 15 12
Wind_Direction
220 229 238 245 264 271 281 291 294 296 298 305 306 307 308 305 307 314 313 316 320 305 281 279 284 312 343 5 36 59 58 53 36 44 51 51 55 59 59 64 69 79 73 79 107 136 149 162 157
222 235 239 249 260 276 278 291 290 293 300 302 306 309 307 303 306 306 310 308 318 302 320 334 234 242 314 335 89 74 72 56 42 51 54 56 59 58 60 57 65 78 86 84 92 118 133 140 148
231 232 238 249 255 260 276 283 293 295 301 304 303 300 288 292 294 300 308 298 311 294 355 146 148 197 348 126 99 92 85 67 50 52 61 61 62 64 55 59 59 68 86 86 94 101 114 131 140
239 246 251 253 253 261 267 282 288 291 299 304 300 296 289 288 291 290 291 293 288 255 199 21 171 146 150 137 119 95 84 66 65 62 66 64 66 61 56 57 65 69 80 82 97 102 102 106 119
237 243 249 254 258 265 270 281 290 294 294 308 304 294 284 279 282 281 279 266 268 224 181 176 177 181 119 245 312 125 107 96 66 71 69 65 66 65 62 62 73 71 74 85 88 97 104 107 111
241 243 244 248 256 262 276 288 285 290 299 303 293 289 284 285 281 274 263 253 235 204 202 185 196 221 227 272 227 142 124 110 83 79 73 66 66 68 70 69 66 67 77 82 81 90 102 103 103
242 246 251 256 262 271 266 269 279 291 305 305 300 299 292 281 269 266 266 250 219 204 204 204 205 255 234 212 177 159 136 121 95 94 78 73 66 68 77 71 72 70 79 88 90 90 97 102 105
244 230 233 241 239 243 258 273 284 295 299 306 302 294 287 287 273 257 252 241 220 208 215 213 217 203 194 191 162 163 141 133 117 100 91 78 81 76 81 76 77 70 78 101 97 99 103 103 105
234 234 233 238 242 248 264 285 290 292 298 300 299 296 297 298 287 259 238 230 218 214 216 224 213 203 195 189 158 160 158 147 138 125 97 83 81 89 88 88 84 86 83 94 108 108 116 115 107
235 240 228 236 242 254 277 286 296 298 299 295 296 300 294 291 283 248 233 221 213 211 219 220 217 205 191 175 171 171 166 150 146 139 113 99 89 78 95 95 96 98 98 88 104 109 104 107 103
229 231 236 240 257 272 287 290 300 295 317 306 312 308 303 304 308 252 218 208 203 205 195 180 190 196 183 181 186 167 167 160 161 150 127 101 93 96 88 107 100 107 107 100 111 109 109 109 98
225 229 234 266 285 271 284 282 290 296 341 28 2 326 34 30 33 41 164 182 185 180 166 172 188 192 189 189 181 179 176 168 173 158 147 115 113 107 101 96 114 111 122 120 118 117 119 112 95
232 233 247 264 286 288 287 277 281 113 60 57 24 16 60 58 62 61 132 156 161 170 170 172 169 192 195 196 171 175 200 181 185 183 181 148 125 126 112 120 103 122 121 128 125 123 123 133 115
239 244 252 265 277 282 256 238 117 140 108 62 47 27 46 66 68 64 75 152 172 168 178 183 189 191 193 195 193 197 189 190 184 196 196 180 171 174 153 113 140 138 135 140 138 131 127 123 120
227 238 251 253 225 209 162 111 146 186 117 53 46 45 45 58 71 64 65 100 183 188 183 191 200 206 209 205 210 195 193 199 194 197 197 195 194 170 169 150 154 146 135 139 147 141 141 135 116
225 224 225 220 211 184 194 231 172 199 185 56 53 54 60 51 61 70 61 83 122 189 194 198 208 216 215 216 217 211 212 198 206 198 192 195 191 175 169 170 156 176 161 154 142 116 108 82 73
214 219 222 218 214 207 212 263 254 231 241 120 75 50 52 46 50 52 58 57 72 162 200 201 204 210 217 223 224 226 210 201 201 188 191 213 210 190 170 181 182 177 179 168 107 118 150 210 358
220 213 214 225 232 247 255 256 261 254 255 289 86 60 52 43 46 38 40 51 46 59 196 203 206 209 218 219 211 212 216 212 214 212 221 225 218 201 201 189 197 153 192 218 201 175 216 129 349
226 213 212 228 226 237 218 243 243 242 280 213 189 58 64 70 68 30 26 34 38 27 35 192 212 217 223 216 209 208 209 216 220 224 215 212 210 206 213 221 201 210 188 217 220 213 207 282 315
232 217 212 224 224 231 230 236 245 230 252 215 217 273 37 22 28 46 24 15 17 14 20 110 198 217 226 224 218 218 215 217 217 216 207 206 210 208 211 215 220 224 212 200 207 200 250 151 336
231 229 222 224 227 234 244 235 246 251 217 196 217 235 341 349 342 24 19 13 3 3 12 23 9 225 220 226 230 225 216 216 220 217 211 220 218 220 214 220 225 232 218 210 204 204 219 198 225
226 231 233 231 233 233 238 234 252 251 237 225 238 271 299 312 324 328 343 352 359 347 0 22 25 33 98 209 252 244 229 225 220 217 222 226 227 218 224 224 226 215 218 214 212 218 197 191 298
224 229 233 235 235 232 230 237 245 251 252 256 265 277 302 281 292 312 317 333 347 344 336 328 351 357 40 94 130 233 235 227 224 224 225 229 228 225 226 220 225 229 212 212 212 204 204 222 242
222 229 232 232 234 231 229 236 237 248 250 252 257 272 270 279 287 292 309 323 337 340 331 321 343 338 332 50 71 42 238 228 218 219 215 221 222 222 217 220 227 215 209 200 212 210 205 215 230
220 224 230 233 235 235 234 230 236 245 250 250 257 260 270 276 283 288 305 319 333 329 314 306 318 329 353 13 48 34 19 213 203 213 215 222 215 207 205 206 206 206 205 206 210 211 216 220 231
222 224 229 237 236 239 242 243 237 241 251 250 244 247 256 267 273 284 302 317 320 316 309 310 309 319 346 354 37 36 27 197 201 204 208 208 203 196 198 194 205 208 205 205 208 216 220 207 216
229 227 227 234 239 237 236 244 241 249 250 249 247 247 256 258 270 281 290 305 303 309 307 295 260 291 335 336 336 13 25 330 207 199 202 198 193 191 194 198 202 203 208 211 216 208 207 202 207
233 235 230 230 236 238 234 240 240 238 246 251 255 257 259 264 269 277 287 295 293 303 301 296 268 231 281 304 293 304 331 186 222 208 203 195 199 195 197 201 202 206 208 206 201 200 206 215 216
235 238 236 231 230 233 236 239 244 239 240 245 249 256 261 263 269 277 282 280 288 295 290 284 263 235 249 262 272 254 253 213 217 216 205 199 204 209 208 206 203 204 208 207 204 209 211 226 228
233 236 238 235 231 231 232 235 242 241 239 241 245 249 254 259 264 268 272 280 287 285 285 283 261 246 243 226 231 249 240 219 222 213 206 203 201 204 209 208 212 211 206 211 211 214 216 220 224
Height
11007 11008 11009 11010 11010 11010 11010 11009 11008 11007 11006 11005 11004 11002 11001 10999 10999 10998 10997 10997 10997 10998 10998 10997 10997 10998 10997 10996 10995 10993 10991 10989 10986 10981 10978 10975 10970 10965 10961 10955 10950 10946 10944 10942 10942 10943 10946 10950 10953
11005 11006 11007 11008 11009 11008 11006 11006 11006 11005 11005 11003 11001 11000 10997 10995 10995 10995 10995 10994 10995 10996 10996 10996 10996 10998 10998 10996 10995 10994 10993 10991 10988 10985 10981 10978 10974 10970 10966 10962 10957 10952 10949 10947 10945 10946 10949 10951 10954
11003 11004 11005 11005 11006 11005 11004 11004 11003 11002 11001 11000 10998 10999 10995 10992 10992 10992 10993 10990 10992 10993 10995 10996 10996 10997 10998 10997 10996 10995 10994 10993 10990 10988 10984 10982 10978 10975 10973 10968 10962 10958 10955 10954 10951 10950 10953 10956 10958
11000 11002 11002 11003 11003 11002 11002 11001 11000 10999 10998 10997 10994 10992 10991 10989 10989 10989 10990 10990 10990 10992 10993 10996 10996 10997 10999 10998 10997 10996 10996 10994 10993 10991 10988 10986 10983 10980 10978 10974 10969 10966 10962 10961 10959 10958 10959 10961 10964
10997 10999 10999 11000 11000 11000 11000 10998 10997 10996 10994 10993 10990 10988 10987 10986 10985 10985 10986 10986 10989 10991 10991 10994 10995 10996 10997 10997 10998 10999 10997 10997 10996 10993 10991 10989 10987 10985 10983 10980 10976 10974 10971 10967 10966 10965 10966 10967 10970
10994 10995 10996 10997 10998 10998 10997 10996 10994 10993 10991 10989 10986 10983 10981 10980 10980 10980 10981 10982 10985 10989 10989 10991 10993 10995 10997 10998 10999 10999 10999 10998 10998 10996 10994 10993 10992 10990 10988 10985 10983 10981 10979 10976 10973 10973 10973 10974 10977
10990 10992 10993 10994 10995 10995 10994 10993 10992 10990 10986 10983 10980 10978 10976 10975 10974 10975 10976 10977 10979 10984 10987 10989 10991 10994 10996 10999 10998 10999 11000 11000 11000 10999 10997 10997 10996 10994 10992 10991 10989 10987 10985 10984 10982 10981 10981 10981 10983
10988 10989 10990 10991 10991 10992 10991 10991 10989 10987 10983 10980 10977 10974 10972 10970 10969 10970 10972 10973 10975 10979 10982 10986 10990 10993 10995 10997 10997 10999 11000 11001 11002 11002 11001 11001 11000 10998 10997 10996 10995 10993 10991 10990 10990 10990 10990 10990 10990
10986 10987 10988 10989 10990 10990 10990 10990 10988 10985 10982 10977 10974 10970 10967 10966 10965 10965 10967 10969 10971 10974 10978 10981 10988 10991 10993 10996 10996 10998 11000 11002 11003 11003 11003 11003 11003 11002 11001 11000 11000 10999 10998 10997 10996 10995 10995 10996 10996
10985 10986 10987 10988 10989 10989 10988 10988 10987 10984 10980 10976 10972 10968 10966 10963 10962 10962 10963 10966 10968 10970 10973 10978 10983 10988 10991 10994 10996 10997 10999 11002 11004 11005 11005 11005 11006 11006 11005 11005 11004 11004 11003 11003 11002 11002 11002 11002 11002
10984 10985 10986 10987 10987 10987 10987 10987 10985 10983 10981 10977 10972 10969 10965 10961 10959 10958 10960 10963 10966 10968 10972 10976 10981 10986 10990 10992 10994 10997 10999 11001 11004 11006 11007 11007 11008 11008 11008 11008 11008 11007 11007 11007 11007 11008 11007 11007 11007
10982 10983 10984 10985 10986 10985 10985 10983 10984 10984 10983 10978 10973 10969 10965 10961 10958 10957 10959 10961 10964 10968 10971 10977 10981 10986 10989 10991 10993 10996 10999 11001 11003 11005 11008 11009 11009 11010 11010 11011 11011 11011 11010 11010 11011 11011 11011 11010 11010
10978 10980 10981 10982 10983 10982 10982 10982 10982 10984 10982 10978 10975 10971 10966 10963 10960 10959 10959 10962 10965 10968 10972 10976 10981 10986 10989 10992 10994 10995 10998 11000 11003 11006 11008 11010 11010 11011 11012 11012 11013 11013 11013 11013 11013 11014 11014 11013 11014
10976 10976 10979 10981 10981 10981 10980 10980 10982 10983 10982 10980 10977 10975 10969 10966 10965 10964 10963 10964 10967 10969 10972 10976 10979 10983 10987 10990 10993 10995 10997 11000 11003 11006 11008 11010 11012 11013 11013 11014 11014 11015 11015 11016 11016 11016 11016 11016 11016
10972 10973 10975 10978 10979 10979 10979 10980 10981 10981 10981 10980 10979 10976 10974 10970 10967 10965 10965 10965 10967 10970 10972 10976 10978 10980 10983 10988 10991 10993 10995 10999 11002 11005 11008 11011 11012 11013 11014 11016 11016 11016 11016 11017 11018 11018 11018 11018 11017
10969 10971 10973 10975 10977 10977 10979 10980 10980 10981 10981 10980 10980 10978 10975 10974 10971 10968 10966 10965 10966 10969 10971 10973 10976 10978 10982 10985 10988 10991 10994 10998 11000 11003 11007 11010 11012 11013 11014 11016 11018 11018 11017 11017 11018 11019 11019 11019 11018
10966 10968 10970 10972 10974 10975 10977 10979 10981 10981 10982 10980 10980 10979 10976 10976 10974 10972 10969 10968 10967 10967 10968 10971 10974 10977 10980 10982 10986 10989 10993 10995 10997 11002 11006 11009 11011 11013 11015 11016 11018 11019 11019 11019 11019 11019 11018 11019 11019
10961 10964 10967 10968 10970 10973 10975 10977 10978 10979 10981 10981 10981 10979 10976 10976 10976 10974 10972 10970 10968 10967 10967 10968 10970 10973 10976 10978 10981 10985 10990 10991 10995 10999 11003 11006 11009 11012 11014 11015 11016 11018 11019 11018 11018 11019 11019 11018 11019
10955 10960 10963 10965 10967 10970 10973 10975 10976 10978 10979 10980 10980 10979 10978 10977 10975 10974 10974 10972 10970 10968 10965 10965 10967 10969 10972 10975 10978 10980 10983 10987 10992 10995 10998 10999 11005 11009 11013 11014 11016 11017 11017 11018 11018 11019 11019 11020 11020
10950 10955 10958 10961 10964 10966 10968 10971 10972 10974 10975 10977 10977 10977 10976 10976 10975 10973 10973 10972 10971 10969 10967 10964 10963 10964 10965 10968 10973 10976 10979 10983 10987 10990 10994 10998 11002 11006 11008 11012 11013 11015 11015 11016 11017 11018 11019 11018 11019
10945 10950 10953 10956 10959 10962 10964 10966 10969 10970 10972 10975 10975 10975 10974 10974 10973 10972 10972 10971 10969 10968 10965 10962 10960 10959 10961 10962 10966 10968 10973 10977 10981 10986 10990 10993 10997 11001 11005 11008 11009 11011 11012 11014 11016 11016 11017 11017 11016
10942 10945 10947 10950 10953 10959 10960 10963 10965 10967 10968 10970 10972 10972 10972 10971 10971 10970 10970 10970 10969 10967 10966 10963 10960 10959 10958 10957 10959 10962 10966 10968 10974 10978 10981 10986 10989 10994 10999 11003 11005 11006 11009 11012 11014 11014 11014 11016 11016
10939 10940 10941 10943 10947 10952 10956 10959 10961 10962 10963 10965 10966 10967 10969 10969 10968 10968 10967 10966 10966 10965 10965 10963 10961 10958 10957 10955 10954 10956 10958 10960 10964 10968 10973 10978 10982 10987 10994 10997 11000 11002 11005 11008 11012 11011 11012 11013 11014
10932 10934 10935 10936 10939 10944 10951 10954 10955 10957 10960 10961 10961 10962 10965 10964 10964 10964 10964 10963 10961 10960 10960 10961 10960 10958 10955 10954 10952 10951 10952 10953 10956 10962 10966 10970 10976 10981 10988 10991 10996 11000 11002 11005 11007 11008 11009 11010 11010
10925 10925 10927 10930 10933 10938 10943 10948 10950 10951 10953 10956 10957 10957 10958 10958 10959 10960 10960 10960 10957 10957 10956 10957 10957 10956 10954 10952 10949 10948 10947 10947 10950 10955 10961 10966 10970 10976 10983 10988 10992 10997 10999 11003 11005 11006 11007 11007 11008
10915 10920 10924 10924 10929 10934 10935 10938 10942 10943 10946 10948 10951 10952 10953 10954 10954 10955 10955 10954 10955 10954 10953 10953 10953 10952 10951 10950 10946 10944 10944 10945 10946 10951 10957 10962 10967 10974 10981 10986 10991 10994 10997 11000 11003 11004 11005 11006 11006
10909 10914 10915 10919 10921 10925 10929 10926 10933 10935 10937 10941 10944 10948 10948 10950 10949 10949 10951 10951 10950 10949 10948 10949 10949 10949 10947 10946 10945 10943 10942 10943 10946 10949 10954 10960 10966 10972 10979 10984 10988 10991 10995 10998 11001 11002 11004 11004 11005
10899 10902 10909 10912 10913 10916 10919 10918 10923 10928 10930 10932 10935 10939 10942 10944 10944 10944 10944 10946 10945 10944 10944 10944 10944 10946 10946 10945 10944 10944 10943 10942 10945 10948 10952 10958 10964 10971 10976 10981 10985 10989 10992 10996 10998 11000 11001 11002 11003
10888 10893 10898 10902 10905 10906 10912 10913 10911 10921 10924 10926 10931 10932 10933 10937 10938 10938 10936 10939 10939 10938 10938 10939 10940 10941 10943 10943 10942 10942 10943 10942 10941 10945 10950 10955 10962 10969 10974 10978 10982 10986 10989 10993 10996 10997 10997 10998 11000
10880 10884 10887 10894 10899 10900 10903 10907 10899 10909 10914 10919 10922 10924 10926 10929 10931 10931 10930 10930 10932 10933 10932 10934 10935 10935 10937 10936 10938 10939 10940 10940 10940 10942 10948 10953 10959 10965 10970 10974 10978 10982 10986 10990 10992 10993 10995 10996 10997